THORAD AGENA D DEB, 4718

Orbit data source: Space-Track

THORAD AGENA D DEB, 4718 is space debris in SSO originally from a launch on Wed, 08 Apr 1970 UTC launched from the Air Force Western Test Range (AFWTR). Debris objects in space refer to the collection of defunct objects orbiting the Earth. Examples of debris include non-operational satellites, rocket bodies, and fragments generated from explosions, collisions, or faulty payload assembly.

Loading next visibility...
Identifier
4718, 1970-025CC
Orbit
SSO
Country
Flag of USUS
Related business
Manufacturer
Unknown
Mission
Spacecraft
Bus & Motor
Unknown
Mass
Unknown
Launch date (UTC)
1970-04-08 (56 years ago)
Launch vehicle
Unknown
Launch site
Air Force Western Test Range (AFWTR)
Object type
Payload
Rocket body
Debris
Shape & HBR
Unknown shape, 0.1 m
Radar Cross Section
Small (<0.1 m²)

Expand to show TLE details & history
Last TLE update: 13 hours ago

TLE from 13 hours ago
0 THORAD AGENA D DEB
1 04718U 70025CC  25300.17073507  .00001043  00000-0  64665-3 0  9992
2 04718 100.0079  20.0401 0101959  97.7483 263.5272 14.05226370821445
Epoch: 2025-10-27T04:05Z
TLE epoch observation values (Epoch: 2025-10-27T04:05:51.510Z)
Latitude
0.00001°
Longitude
-77.20094°
Altitude
887.686 km
Speed
7.404 km/s
True Right ascension
01h 20m 09s
True Declination
0° 00' 00"
Sunlit
Object was in full shadow at epoch
Visualization orbit readout
Latitude
Unknown
Longitude
Unknown
Altitude
Unknown
Speed
Unknown
Apparent Right ascension
Unknown
Apparent Declination
Unknown
Sunlit
N/A
Visualization observer readout
Local Sidereal Time
12:15:02
Azimuth
Unknown
Elevation
Unknown
Doppler factor
Unknown
Orbital elements
Apogee altitude
946.929 km
Perigee altitude
799.066 km
Semi-major axis
7,251.134 km
Eccentricity
0.0102
Inclination
100.0079°
RAAN
20.0401°
Arg. of periapsis
97.7483°
True anomaly
262.36803°
Mean anomaly
263.5272°
Eccentric anomaly
262.94744°
Mean motion
3.51507 °/min
Orbital period
102.42 mins
BSTAR
0.00064665
Loading maneuver chart data...
Computing Atmospheric mass density...

Documentation

Showing up to 5 results
|